Location: Newark
(27.2452°N, 107.0032°W)
Time: 11:15:15
(UTC+00:00)

Hubble Space Telescope - Pass Details

Date: 19 December 2019
Orbit: 536 x 540 km, 28.5° (Epoch: 20 January)

Event Time Altitude Azimuth Distance (km) Brightness Sun altitude
Exits shadow 12:21:48 54° 295° (WNW) 653 0.8 -19.6°
Maximum altitude 12:22:36 73° 360° (N) 561 0.7 -19.4°
Drops below altitude 10° 12:26:44 10° 85° (E) 1,786 4.5 -18.5°
Sets 12:29:00 0° 88° (E) 2,677 5.7 -18.0°
